When you browse on this site, cookies collect data to enhance your experience and personalize the content and advertising you see.
Visit our Privacy Policy to learn more. By continuing to use the site, you agree to this use of cookies and data.
  • In Netherlands
  • List of Countries
  • For 7 days
  • Water Temperature
  • Weather Map
  • Weather Widgets
  • user-avatar
    Login

    Hourly Weather Iraki

    Today, 14 October, Monday

    Time Temperature Precipitation Wind Pressure Humidity
    00:00 +11°C° 0 mm 1 mps 673 mmHg 48%
    01:00 +11°C° 0 mm 1 mps 673 mmHg 46%
    02:00 +11°C° 0 mm 1 mps 672 mmHg 44%
    03:00 +11°C° 0 mm 1 mps 672 mmHg 42%
    04:00 +11°C° 0 mm 1 mps 672 mmHg 41%
    05:00 +11°C° 0 mm 1 mps 672 mmHg 39%
    06:00 +11°C° 0 mm 1 mps 672 mmHg 38%
    07:00 +13°C° 0 mm 1 mps 673 mmHg 35%
    08:00 +15°C° 0 mm 1 mps 674 mmHg 32%
    09:00 +19°C° 0 mm 1 mps 675 mmHg 30%
    10:00 +19°C° 0 mm 1 mps 675 mmHg 31%
    11:00 +19°C° 0 mm 2 mps 675 mmHg 33%
    12:00 +19°C° 0 mm 2 mps 674 mmHg 35%
    13:00 +19°C° 0 mm 2 mps 674 mmHg 37%
    14:00 +18°C° 0 mm 2 mps 674 mmHg 39%
    15:00 +18°C° 0 mm 2 mps 674 mmHg 42%
    16:00 +16°C° 0 mm 1 mps 673 mmHg 49%
    17:00 +14°C° 0 mm 1 mps 673 mmHg 56%
    18:00 +11°C° 0 mm 0 mps 672 mmHg 63%
    19:00 +12°C° 0 mm 1 mps 672 mmHg 62%
    20:00 +12°C° 0 mm 1 mps 672 mmHg 62%
    21:00 +12°C° 0 mm 1 mps 673 mmHg 62%
    22:00 +12°C° 0 mm 1 mps 672 mmHg 61%
    23:00 +12°C° 0 mm 1 mps 672 mmHg 60%

    Tomorrow, 15 October, Tuesday

    Time Temperature Precipitation Wind Pressure Humidity
    00:00 +12°C° 0 mm 1 mps 672 mmHg 58%
    01:00 +12°C° 0 mm 1 mps 671 mmHg 56%
    02:00 +12°C° 0 mm 1 mps 671 mmHg 55%
    03:00 +11°C° 0 mm 1 mps 671 mmHg 53%
    04:00 +11°C° 0 mm 1 mps 671 mmHg 50%
    05:00 +11°C° 0 mm 1 mps 670 mmHg 47%
    06:00 +11°C° 0 mm 1 mps 670 mmHg 44%
    07:00 +14°C° 0 mm 1 mps 671 mmHg 40%
    08:00 +16°C° 0 mm 1 mps 671 mmHg 37%
    09:00 +19°C° 0 mm 1 mps 672 mmHg 33%
    10:00 +20°C° 0 mm 1 mps 672 mmHg 33%
    11:00 +20°C° 0 mm 2 mps 672 mmHg 32%
    12:00 +21°C° 0 mm 2 mps 672 mmHg 32%
    13:00 +20°C° 0 mm 2 mps 671 mmHg 34%
    14:00 +20°C° 0 mm 2 mps 671 mmHg 37%
    15:00 +21°C° 0 mm 1 mps 670 mmHg 39%
    16:00 +19°C° 0 mm 1 mps 670 mmHg 44%
    17:00 +16°C° 0 mm 1 mps 669 mmHg 49%
    18:00 +14°C° 0 mm 1 mps 669 mmHg 54%
    19:00 +14°C° 0 mm 1 mps 669 mmHg 50%
    20:00 +14°C° 0 mm 1 mps 669 mmHg 47%
    21:00 +14°C° 0 mm 1 mps 669 mmHg 44%
    22:00 +14°C° 0 mm 1 mps 669 mmHg 42%
    23:00 +13°C° 0 mm 1 mps 669 mmHg 40%

    Day after tomorrow, 16 October, Wednesday

    Time Temperature Precipitation Wind Pressure Humidity
    00:00 +13°C° 0 mm 1 mps 668 mmHg 38%
    01:00 +13°C° 0 mm 1 mps 668 mmHg 38%
    02:00 +13°C° 0 mm 1 mps 668 mmHg 38%
    03:00 +13°C° 0 mm 1 mps 668 mmHg 38%
    04:00 +12°C° 0 mm 1 mps 668 mmHg 39%
    05:00 +12°C° 0 mm 2 mps 668 mmHg 40%
    06:00 +12°C° 0 mm 2 mps 668 mmHg 41%
    07:00 +14°C° 0 mm 1 mps 669 mmHg 39%
    08:00 +16°C° 0 mm 1 mps 670 mmHg 37%
    09:00 +19°C° 0 mm 1 mps 670 mmHg 34%
    10:00 +20°C° 0 mm 1 mps 670 mmHg 34%
    11:00 +19°C° 0 mm 2 mps 670 mmHg 35%
    12:00 +20°C° 0 mm 2 mps 670 mmHg 35%
    13:00 +19°C° 0 mm 2 mps 670 mmHg 40%
    14:00 +19°C° 0 mm 2 mps 670 mmHg 45%
    15:00 +18°C° 0 mm 2 mps 670 mmHg 50%
    16:00 +16°C° 0 mm 2 mps 669 mmHg 58%
    17:00 +14°C° 0 mm 1 mps 669 mmHg 67%
    18:00 +13°C° 0 mm 1 mps 669 mmHg 76%
    19:00 +12°C° 0 mm 1 mps 669 mmHg 74%
    20:00 +12°C° 0 mm 1 mps 669 mmHg 72%
    21:00 +12°C° 0 mm 1 mps 669 mmHg 70%
    22:00 +12°C° 0 mm 1 mps 669 mmHg 70%
    23:00 +11°C° 0 mm 1 mps 669 mmHg 69%

    17 October, Thursday

    Time Temperature Precipitation Wind Pressure Humidity
    00:00 +11°C° 0 mm 1 mps 669 mmHg 69%
    01:00 +11°C° 0 mm 1 mps 669 mmHg 68%
    02:00 +11°C° 0 mm 1 mps 669 mmHg 66%
    03:00 +11°C° 0 mm 1 mps 669 mmHg 64%
    04:00 +11°C° 0 mm 1 mps 669 mmHg 62%
    05:00 +11°C° 0 mm 1 mps 669 mmHg 59%
    06:00 +11°C° 0 mm 1 mps 669 mmHg 56%
    07:00 +13°C° 0 mm 1 mps 670 mmHg 51%
    08:00 +15°C° 0 mm 1 mps 670 mmHg 46%
    09:00 +18°C° 0 mm 1 mps 671 mmHg 41%
    10:00 +17°C° 0 mm 2 mps 671 mmHg 40%
    11:00 +18°C° 0 mm 2 mps 671 mmHg 39%
    12:00 +19°C° 0 mm 2 mps 671 mmHg 38%
    13:00 +18°C° 0 mm 2 mps 671 mmHg 41%
    14:00 +18°C° 0 mm 2 mps 670 mmHg 44%
    15:00 +17°C° 0 mm 2 mps 670 mmHg 47%
    16:00 +16°C° 0 mm 2 mps 669 mmHg 54%
    17:00 +14°C° 0 mm 1 mps 669 mmHg 61%
    18:00 +12°C° 0 mm 1 mps 668 mmHg 68%
    19:00 +12°C° 0 mm 1 mps 668 mmHg 66%
    20:00 +12°C° 0 mm 1 mps 668 mmHg 64%
    21:00 +12°C° 0 mm 1 mps 668 mmHg 62%
    22:00 +12°C° 0 mm 1 mps 668 mmHg 59%
    23:00 +12°C° 0 mm 1 mps 668 mmHg 56%

    18 October, Friday

    Time Temperature Precipitation Wind Pressure Humidity
    00:00 +12°C° 0 mm 1 mps 667 mmHg 53%
    01:00 +12°C° 0 mm 1 mps 667 mmHg 50%
    02:00 +12°C° 0 mm 1 mps 667 mmHg 48%
    03:00 +12°C° 0 mm 1 mps 667 mmHg 45%
    04:00 +12°C° 0 mm 1 mps 667 mmHg 44%
    05:00 +12°C° 0 mm 1 mps 667 mmHg 43%
    06:00 +11°C° 0 mm 1 mps 667 mmHg 42%
    07:00 +14°C° 0 mm 1 mps 667 mmHg 39%
    08:00 +16°C° 0 mm 1 mps 668 mmHg 36%
    09:00 +19°C° 0 mm 1 mps 668 mmHg 33%
    10:00 +20°C° 0 mm 1 mps 668 mmHg 34%
    11:00 +19°C° 0 mm 2 mps 668 mmHg 35%
    12:00 +20°C° 0 mm 2 mps 668 mmHg 36%
    13:00 +19°C° 0 mm 2 mps 668 mmHg 39%
    14:00 +19°C° 0 mm 2 mps 668 mmHg 42%
    15:00 +18°C° 0 mm 2 mps 667 mmHg 45%
    16:00 +18°C° 0 mm 1 mps 667 mmHg 51%
    17:00 +15°C° 0 mm 1 mps 667 mmHg 57%
    18:00 +12°C° 0 mm 0 mps 666 mmHg 63%
    19:00 +13°C° 0 mm 1 mps 667 mmHg 61%
    20:00 +13°C° 0 mm 1 mps 667 mmHg 59%
    21:00 +13°C° 0 mm 1 mps 667 mmHg 57%
    22:00 +13°C° 0 mm 1 mps 667 mmHg 57%
    23:00 +13°C° 0 mm 1 mps 667 mmHg 57%

    19 October, Saturday

    Time Temperature Precipitation Wind Pressure Humidity
    00:00 +12°C° 0 mm 1 mps 667 mmHg 57%
    01:00 +12°C° 0 mm 1 mps 667 mmHg 57%
    02:00 +12°C° 0 mm 1 mps 667 mmHg 58%
    03:00 +12°C° 0 mm 1 mps 667 mmHg 58%
    04:00 +11°C° 0 mm 1 mps 667 mmHg 60%
    05:00 +10°C° 0 mm 0 mps 667 mmHg 62%
    06:00 +9°C° 0 mm 0 mps 668 mmHg 63%
    07:00 +12°C° 0 mm 1 mps 668 mmHg 60%
    08:00 +13°C° 0 mm 1 mps 669 mmHg 56%
    09:00 +15°C° 0 mm 1 mps 670 mmHg 53%
    10:00 +15°C° 0.1 mm 1 mps 670 mmHg 56%
    11:00 +15°C° 0.1 mm 2 mps 670 mmHg 59%
    12:00 +15°C° 0.1 mm 2 mps 670 mmHg 62%
    13:00 +15°C° 0.2 mm 2 mps 670 mmHg 65%
    14:00 +14°C° 0.2 mm 2 mps 670 mmHg 67%
    15:00 +14°C° 0.2 mm 2 mps 670 mmHg 70%
    16:00 +13°C° 0 mm 1 mps 669 mmHg 77%
    17:00 +12°C° 0 mm 1 mps 669 mmHg 84%
    18:00 +11°C° 0 mm 1 mps 669 mmHg 91%
    19:00 +10°C° 0 mm 1 mps 669 mmHg 91%
    20:00 +10°C° 0 mm 1 mps 669 mmHg 91%
    21:00 +10°C° 0 mm 1 mps 670 mmHg 91%
    22:00 +10°C° 0 mm 1 mps 670 mmHg 91%
    23:00 +10°C° 0 mm 1 mps 670 mmHg 91%
    Show more